TimePDT,TemperatureF,Dew PointF,Humidity,Sea Level PressureIn,VisibilityMPH,Wind Direction,Wind SpeedMPH,Gust SpeedMPH,PrecipitationIn,Events,Conditions,WindDirDegrees,DateUTC
12:15 AM,46.4,42.8,87,30.31,8.0,Calm,Calm,-,N/A,,Mostly Cloudy,0,2012-10-17 07:15:00
12:35 AM,44.6,42.8,93,30.32,9.0,Calm,Calm,-,N/A,,Scattered Clouds,0,2012-10-17 07:35:00
12:55 AM,44.6,42.8,93,30.31,3.0,Calm,Calm,-,N/A,,Partly Cloudy,0,2012-10-17 07:55:00
1:15 AM,42.8,39.2,87,30.31,0.8,Calm,Calm,-,N/A,,Overcast,0,2012-10-17 08:15:00
1:35 AM,44.6,41.0,87,30.31,0.5,Calm,Calm,-,N/A,,Overcast,0,2012-10-17 08:35:00
1:55 AM,44.6,42.8,93,30.33,0.2,Calm,Calm,-,N/A,,Overcast,0,2012-10-17 08:55:00
2:15 AM,44.6,42.8,93,30.33,0.2,Calm,Calm,-,N/A,,Overcast,0,2012-10-17 09:15:00
2:35 AM,44.6,42.8,93,30.33,0.2,Calm,Calm,-,N/A,,Overcast,0,2012-10-17 09:35:00
2:55 AM,44.6,42.8,93,30.33,0.2,Calm,Calm,-,N/A,,Overcast,0,2012-10-17 09:55:00
3:15 AM,44.6,42.8,93,30.33,0.8,Calm,Calm,-,N/A,,Overcast,0,2012-10-17 10:15:00
3:35 AM,44.6,42.8,93,30.31,10.0,SSE,3.5,-,N/A,,Overcast,150,2012-10-17 10:35:00
3:55 AM,46.4,42.8,87,30.31,10.0,Calm,Calm,-,N/A,,Overcast,0,2012-10-17 10:55:00
4:15 AM,46.4,42.8,87,30.32,10.0,Calm,Calm,-,N/A,,Overcast,0,2012-10-17 11:15:00
4:35 AM,46.4,42.8,87,30.33,9.0,Calm,Calm,-,N/A,,Overcast,0,2012-10-17 11:35:00
4:55 AM,46.4,44.6,93,30.32,6.0,Calm,Calm,-,N/A,,Overcast,0,2012-10-17 11:55:00
5:15 AM,46.4,42.8,87,30.32,5.0,Calm,Calm,-,N/A,,Overcast,0,2012-10-17 12:15:00
5:35 AM,46.4,44.6,93,30.32,7.0,Calm,Calm,-,N/A,,Overcast,0,2012-10-17 12:35:00
5:55 AM,46.4,44.6,93,30.31,9.0,Calm,Calm,-,N/A,,Overcast,0,2012-10-17 12:55:00
6:15 AM,46.4,42.8,87,30.32,10.0,Calm,Calm,-,N/A,,Overcast,0,2012-10-17 13:15:00
6:35 AM,46.4,44.6,93,30.32,10.0,Calm,Calm,-,N/A,,Overcast,0,2012-10-17 13:35:00
6:55 AM,46.4,42.8,87,30.32,10.0,Calm,Calm,-,N/A,,Overcast,0,2012-10-17 13:55:00
7:15 AM,46.4,42.8,87,30.32,10.0,Calm,Calm,-,N/A,,Overcast,0,2012-10-17 14:15:00
7:35 AM,46.4,42.8,87,30.32,7.0,SSE,3.5,-,N/A,,Mostly Cloudy,150,2012-10-17 14:35:00
7:55 AM,46.4,42.8,87,30.31,10.0,ESE,3.5,-,N/A,,Mostly Cloudy,120,2012-10-17 14:55:00
8:15 AM,46.4,42.8,87,30.30,10.0,SSE,3.5,-,N/A,,Partly Cloudy,160,2012-10-17 15:15:00
8:35 AM,46.4,41.0,81,30.30,10.0,Calm,Calm,-,N/A,,Clear,0,2012-10-17 15:35:00
8:55 AM,46.4,42.8,87,30.32,10.0,NNW,3.5,-,N/A,,Clear,330,2012-10-17 15:55:00
9:15 AM,46.4,42.8,87,30.33,10.0,NNW,4.6,-,N/A,,Clear,340,2012-10-17 16:15:00
9:55 AM,48.2,42.8,82,30.32,10.0,Calm,Calm,-,N/A,,Mostly Cloudy,0,2012-10-17 16:55:00
10:15 AM,48.2,42.8,82,30.33,10.0,Calm,Calm,-,N/A,,Partly Cloudy,0,2012-10-17 17:15:00
10:35 AM,50.0,44.6,82,30.32,10.0,Calm,Calm,-,N/A,,Partly Cloudy,0,2012-10-17 17:35:00
10:55 AM,50.0,44.6,82,30.31,10.0,Calm,Calm,-,N/A,,Partly Cloudy,0,2012-10-17 17:55:00
11:15 AM,50.0,44.6,82,30.31,10.0,Calm,Calm,-,N/A,,Scattered Clouds,0,2012-10-17 18:15:00
11:35 AM,51.8,44.6,76,30.31,10.0,North,4.6,-,N/A,,Mostly Cloudy,350,2012-10-17 18:35:00
11:55 AM,51.8,44.6,76,30.30,10.0,NNE,3.5,-,N/A,,Mostly Cloudy,30,2012-10-17 18:55:00
12:15 PM,53.6,44.6,72,30.30,10.0,West,3.5,-,N/A,,Scattered Clouds,280,2012-10-17 19:15:00
12:35 PM,53.6,46.4,77,30.29,10.0,West,4.6,-,N/A,,Scattered Clouds,270,2012-10-17 19:35:00
12:55 PM,55.4,42.8,63,30.29,10.0,NNW,5.8,-,N/A,,Mostly Cloudy,340,2012-10-17 19:55:00
1:15 PM,55.4,44.6,67,30.27,10.0,NNW,3.5,-,N/A,,Scattered Clouds,330,2012-10-17 20:15:00
1:35 PM,55.4,44.6,67,30.27,10.0,NW,5.8,-,N/A,,Scattered Clouds,320,2012-10-17 20:35:00
1:55 PM,57.2,44.6,63,30.26,10.0,NNE,5.8,-,N/A,,Partly Cloudy,20,2012-10-17 20:55:00
2:15 PM,59.0,44.6,59,30.25,10.0,NNW,6.9,-,N/A,,Partly Cloudy,340,2012-10-17 21:15:00
2:35 PM,57.2,44.6,63,30.24,10.0,WNW,6.9,-,N/A,,Clear,300,2012-10-17 21:35:00
2:55 PM,59.0,44.6,59,30.23,10.0,NW,5.8,-,N/A,,Clear,320,2012-10-17 21:55:00
3:15 PM,59.0,42.8,55,30.23,10.0,NNW,8.1,-,N/A,,Clear,340,2012-10-17 22:15:00
3:35 PM,59.0,42.8,55,30.23,10.0,NNW,4.6,-,N/A,,Clear,330,2012-10-17 22:35:00
3:55 PM,59.0,42.8,55,30.23,10.0,NW,5.8,-,N/A,,Clear,320,2012-10-17 22:55:00
4:15 PM,59.0,42.8,55,30.23,10.0,NNW,4.6,-,N/A,,Clear,330,2012-10-17 23:15:00
4:35 PM,59.0,42.8,55,30.23,10.0,NNW,3.5,-,N/A,,Clear,330,2012-10-17 23:35:00
4:55 PM,59.0,42.8,55,30.22,10.0,WNW,4.6,-,N/A,,Clear,300,2012-10-17 23:55:00
5:15 PM,57.2,44.6,63,30.23,10.0,NNW,6.9,-,N/A,,Clear,330,2012-10-18 00:15:00
5:35 PM,57.2,44.6,63,30.22,10.0,North,6.9,-,N/A,,Partly Cloudy,360,2012-10-18 00:35:00
5:55 PM,57.2,42.8,59,30.21,10.0,North,5.8,-,N/A,,Mostly Cloudy,350,2012-10-18 00:55:00
6:15 PM,57.2,44.6,63,30.21,10.0,North,4.6,-,N/A,,Partly Cloudy,360,2012-10-18 01:15:00
6:35 PM,57.2,42.8,59,30.21,10.0,North,4.6,-,N/A,,Clear,10,2012-10-18 01:35:00
6:55 PM,55.4,44.6,67,30.21,10.0,Calm,Calm,-,N/A,,Clear,0,2012-10-18 01:55:00
7:15 PM,53.6,44.6,72,30.21,10.0,Calm,Calm,-,N/A,,Clear,0,2012-10-18 02:15:00
7:35 PM,51.8,44.6,76,30.22,10.0,Calm,Calm,-,N/A,,Clear,0,2012-10-18 02:35:00
7:55 PM,50.0,44.6,82,30.22,10.0,Calm,Calm,-,N/A,,Clear,0,2012-10-18 02:55:00
8:15 PM,48.2,44.6,87,30.22,10.0,Calm,Calm,-,N/A,,Clear,0,2012-10-18 03:15:00
8:35 PM,48.2,44.6,87,30.22,10.0,Calm,Calm,-,N/A,,Clear,0,2012-10-18 03:35:00
8:55 PM,48.2,44.6,87,30.22,10.0,Calm,Calm,-,N/A,,Clear,0,2012-10-18 03:55:00
9:15 PM,48.2,44.6,87,30.23,10.0,Calm,Calm,-,N/A,,Clear,0,2012-10-18 04:15:00
9:35 PM,46.4,44.6,93,30.23,10.0,Calm,Calm,-,N/A,,Clear,0,2012-10-18 04:35:00
9:55 PM,46.4,42.8,87,30.23,10.0,Calm,Calm,-,N/A,,Mostly Cloudy,0,2012-10-18 04:55:00
10:15 PM,46.4,42.8,87,30.23,10.0,Calm,Calm,-,N/A,,Mostly Cloudy,0,2012-10-18 05:15:00
10:35 PM,46.4,42.8,87,30.22,10.0,Calm,Calm,-,N/A,,Clear,0,2012-10-18 05:35:00
10:55 PM,46.4,42.8,87,30.22,10.0,Calm,Calm,-,N/A,,Clear,0,2012-10-18 05:55:00
11:15 PM,44.6,41.0,87,30.20,10.0,Calm,Calm,-,N/A,,Clear,0,2012-10-18 06:15:00
11:35 PM,44.6,41.0,87,30.21,10.0,Calm,Calm,-,N/A,,Clear,0,2012-10-18 06:35:00
11:55 PM,44.6,41.0,87,30.22,10.0,Calm,Calm,-,N/A,,Clear,0,2012-10-18 06:55:00